When you browse on this site, cookies collect data to enhance your experience and personalize the content and advertising you see.
Visit our Privacy Policy to learn more. By continuing to use the site, you agree to this use of cookies and data.
  • In Spain
  • List of Countries
  • For 7 days
  • Water Temperature
  • Weather Map
  • Weather Widgets
  • user-avatar
    Login

    Hourly Weather Biskira

    Today, 1 June, Monday

    Time Temperature Precipitation Wind Pressure Humidity
    00:00 +29°C° 0 mm 4 mps 749 mmHg 48%
    01:00 +29°C° 0 mm 4 mps 749 mmHg 49%
    02:00 +28°C° 0 mm 3 mps 749 mmHg 50%
    03:00 +28°C° 0 mm 2 mps 749 mmHg 51%
    04:00 +28°C° 0 mm 3 mps 749 mmHg 50%
    05:00 +28°C° 0 mm 4 mps 749 mmHg 49%
    06:00 +28°C° 0 mm 4 mps 750 mmHg 50%
    07:00 +29°C° 0 mm 4 mps 750 mmHg 46%
    08:00 +30°C° 0 mm 4 mps 750 mmHg 43%
    09:00 +32°C° 0 mm 4 mps 750 mmHg 39%
    10:00 +33°C° 0 mm 4 mps 750 mmHg 36%
    11:00 +34°C° 0 mm 3 mps 749 mmHg 34%
    12:00 +35°C° 0 mm 3 mps 749 mmHg 31%
    13:00 +36°C° 0 mm 2 mps 749 mmHg 30%
    14:00 +36°C° 0 mm 2 mps 749 mmHg 29%
    15:00 +36°C° 0 mm 1 mps 748 mmHg 27%
    16:00 +37°C° 0 mm 2 mps 748 mmHg 27%
    17:00 +37°C° 0 mm 2 mps 749 mmHg 27%
    18:00 +37°C° 0 mm 3 mps 749 mmHg 26%
    19:00 +36°C° 0.1 mm 4 mps 749 mmHg 30%
    20:00 +35°C° 0.1 mm 5 mps 750 mmHg 33%
    21:00 +33°C° 0.1 mm 6 mps 751 mmHg 37%
    22:00 +32°C° 0 mm 5 mps 751 mmHg 40%
    23:00 +32°C° 0 mm 4 mps 751 mmHg 42%

    Tomorrow, 2 June, Tuesday

    Time Temperature Precipitation Wind Pressure Humidity
    00:00 +30°C° 0 mm 4 mps 751 mmHg 45%
    01:00 +29°C° 0 mm 3 mps 751 mmHg 46%
    02:00 +29°C° 0 mm 2 mps 751 mmHg 47%
    03:00 +28°C° 0 mm 1 mps 751 mmHg 48%
    04:00 +28°C° 0 mm 2 mps 751 mmHg 48%
    05:00 +28°C° 0 mm 3 mps 751 mmHg 48%
    06:00 +27°C° 0 mm 3 mps 751 mmHg 48%
    07:00 +28°C° 0 mm 3 mps 751 mmHg 46%
    08:00 +28°C° 0 mm 3 mps 752 mmHg 44%
    09:00 +29°C° 0 mm 3 mps 752 mmHg 43%
    10:00 +30°C° 0 mm 2 mps 752 mmHg 40%
    11:00 +31°C° 0 mm 2 mps 751 mmHg 38%
    12:00 +32°C° 0 mm 2 mps 750 mmHg 35%
    13:00 +34°C° 0 mm 2 mps 750 mmHg 33%
    14:00 +35°C° 0 mm 2 mps 750 mmHg 30%
    15:00 +36°C° 0 mm 2 mps 749 mmHg 27%
    16:00 +36°C° 0 mm 2 mps 749 mmHg 27%
    17:00 +36°C° 0 mm 3 mps 749 mmHg 27%
    18:00 +36°C° 0 mm 3 mps 748 mmHg 27%
    19:00 +35°C° 0 mm 3 mps 749 mmHg 29%
    20:00 +35°C° 0 mm 3 mps 750 mmHg 31%
    21:00 +34°C° 0 mm 2 mps 750 mmHg 33%
    22:00 +34°C° 0 mm 2 mps 750 mmHg 34%
    23:00 +32°C° 0 mm 1 mps 749 mmHg 36%

    Day after tomorrow, 3 June, Wednesday

    Time Temperature Precipitation Wind Pressure Humidity
    00:00 +31°C° 0 mm 1 mps 749 mmHg 38%
    01:00 +30°C° 0 mm 2 mps 749 mmHg 38%
    02:00 +30°C° 0 mm 3 mps 749 mmHg 38%
    03:00 +29°C° 0 mm 5 mps 749 mmHg 37%
    04:00 +29°C° 0 mm 5 mps 749 mmHg 35%
    05:00 +28°C° 0 mm 5 mps 749 mmHg 34%
    06:00 +28°C° 0 mm 5 mps 749 mmHg 32%
    07:00 +29°C° 0 mm 5 mps 749 mmHg 31%
    08:00 +32°C° 0 mm 5 mps 749 mmHg 29%
    09:00 +33°C° 0 mm 5 mps 749 mmHg 28%
    10:00 +34°C° 0 mm 4 mps 749 mmHg 27%
    11:00 +35°C° 0 mm 4 mps 748 mmHg 26%
    12:00 +36°C° 0 mm 3 mps 748 mmHg 25%
    13:00 +36°C° 0.1 mm 3 mps 747 mmHg 25%
    14:00 +37°C° 0.1 mm 2 mps 747 mmHg 24%
    15:00 +36°C° 0.1 mm 1 mps 746 mmHg 23%
    16:00 +35°C° 0.5 mm 3 mps 746 mmHg 30%
    17:00 +34°C° 0.5 mm 4 mps 746 mmHg 37%
    18:00 +32°C° 0.5 mm 5 mps 746 mmHg 43%
    19:00 +32°C° 0.3 mm 4 mps 746 mmHg 42%
    20:00 +30°C° 0.3 mm 3 mps 747 mmHg 40%
    21:00 +30°C° 0.3 mm 2 mps 747 mmHg 39%
    22:00 +30°C° 0 mm 3 mps 747 mmHg 40%
    23:00 +30°C° 0 mm 3 mps 747 mmHg 40%

    4 June, Thursday

    Time Temperature Precipitation Wind Pressure Humidity
    00:00 +30°C° 0 mm 3 mps 746 mmHg 41%
    01:00 +30°C° 0 mm 2 mps 746 mmHg 42%
    02:00 +30°C° 0 mm 1 mps 746 mmHg 42%
    03:00 +30°C° 0 mm 1 mps 746 mmHg 43%
    04:00 +30°C° 0 mm 2 mps 746 mmHg 41%
    05:00 +30°C° 0 mm 3 mps 746 mmHg 39%
    06:00 +30°C° 0 mm 5 mps 746 mmHg 38%
    07:00 +33°C° 0 mm 5 mps 746 mmHg 34%
    08:00 +34°C° 0 mm 5 mps 746 mmHg 30%
    09:00 +36°C° 0 mm 6 mps 746 mmHg 26%
    10:00 +38°C° 0 mm 6 mps 745 mmHg 23%
    11:00 +39°C° 0 mm 6 mps 745 mmHg 21%
    12:00 +41°C° 0 mm 6 mps 744 mmHg 18%
    13:00 +41°C° 0 mm 6 mps 744 mmHg 17%
    14:00 +42°C° 0 mm 5 mps 743 mmHg 16%
    15:00 +42°C° 0 mm 5 mps 742 mmHg 15%
    16:00 +42°C° 0 mm 4 mps 742 mmHg 15%
    17:00 +41°C° 0 mm 4 mps 742 mmHg 16%
    18:00 +40°C° 0 mm 3 mps 742 mmHg 16%
    19:00 +39°C° 0 mm 7 mps 743 mmHg 18%
    20:00 +38°C° 0 mm 10 mps 744 mmHg 20%
    21:00 +36°C° 0 mm 14 mps 745 mmHg 22%
    22:00 +34°C° 0 mm 13 mps 745 mmHg 23%
    23:00 +33°C° 0 mm 11 mps 745 mmHg 24%

    5 June, Friday

    Time Temperature Precipitation Wind Pressure Humidity
    00:00 +32°C° 0 mm 10 mps 745 mmHg 26%
    01:00 +31°C° 0 mm 9 mps 745 mmHg 28%
    02:00 +31°C° 0 mm 9 mps 746 mmHg 30%
    03:00 +29°C° 0 mm 8 mps 746 mmHg 32%
    04:00 +29°C° 0 mm 8 mps 746 mmHg 32%
    05:00 +29°C° 0 mm 8 mps 746 mmHg 33%
    06:00 +29°C° 0 mm 8 mps 747 mmHg 34%
    07:00 +31°C° 0 mm 8 mps 747 mmHg 32%
    08:00 +32°C° 0 mm 8 mps 748 mmHg 30%
    09:00 +33°C° 0 mm 8 mps 748 mmHg 28%
    10:00 +34°C° 0 mm 7 mps 748 mmHg 26%
    11:00 +35°C° 0 mm 7 mps 748 mmHg 23%
    12:00 +36°C° 0 mm 7 mps 748 mmHg 21%
    13:00 +38°C° 0 mm 8 mps 748 mmHg 20%
    14:00 +38°C° 0 mm 8 mps 748 mmHg 20%
    15:00 +38°C° 0 mm 9 mps 748 mmHg 20%
    16:00 +37°C° 0 mm 9 mps 748 mmHg 21%
    17:00 +37°C° 0 mm 9 mps 748 mmHg 22%
    18:00 +35°C° 0 mm 8 mps 748 mmHg 23%
    19:00 +35°C° 0 mm 7 mps 749 mmHg 24%
    20:00 +34°C° 0 mm 6 mps 750 mmHg 25%
    21:00 +33°C° 0 mm 5 mps 750 mmHg 27%
    22:00 +33°C° 0 mm 5 mps 751 mmHg 28%
    23:00 +32°C° 0 mm 4 mps 751 mmHg 29%

    6 June, Saturday

    Time Temperature Precipitation Wind Pressure Humidity
    00:00 +30°C° 0 mm 3 mps 751 mmHg 31%
    01:00 +30°C° 0 mm 3 mps 751 mmHg 32%
    02:00 +29°C° 0 mm 2 mps 751 mmHg 34%
    03:00 +29°C° 0 mm 2 mps 751 mmHg 36%
    04:00 +29°C° 0 mm 2 mps 751 mmHg 36%
    05:00 +29°C° 0 mm 3 mps 752 mmHg 37%
    06:00 +29°C° 0 mm 3 mps 752 mmHg 37%
    07:00 +30°C° 0 mm 4 mps 752 mmHg 36%
    08:00 +32°C° 0 mm 4 mps 752 mmHg 35%
    09:00 +32°C° 0 mm 5 mps 752 mmHg 35%
    10:00 +33°C° 0 mm 4 mps 752 mmHg 32%
    11:00 +34°C° 0 mm 4 mps 752 mmHg 29%
    12:00 +35°C° 0 mm 3 mps 752 mmHg 26%
    13:00 +36°C° 0 mm 3 mps 751 mmHg 25%
    14:00 +37°C° 0 mm 3 mps 751 mmHg 24%
    15:00 +37°C° 0 mm 3 mps 750 mmHg 23%
    16:00 +37°C° 0 mm 3 mps 750 mmHg 23%
    17:00 +37°C° 0 mm 3 mps 750 mmHg 23%
    18:00 +37°C° 0 mm 4 mps 749 mmHg 23%
    19:00 +36°C° 0 mm 4 mps 749 mmHg 24%
    20:00 +36°C° 0 mm 5 mps 750 mmHg 24%
    21:00 +36°C° 0 mm 5 mps 750 mmHg 25%
    22:00 +35°C° 0 mm 5 mps 749 mmHg 26%
    23:00 +34°C° 0 mm 5 mps 749 mmHg 27%
    Show more